This is the latest recevied weather packets stored in our database for station/object KO6HRZ. If no packets are shown the sender has not sent any weather packets the latest 10 day(s).
| Time | Temp. | Humidity | Pressure | Rain* | Wind** | Luminosity | Snow |
|---|---|---|---|---|---|---|---|
| 1788323354 | 17.78° C | 74% | 1014.9 hPa | 0 mm | - | 0 W/m² | - |
| 1788322755 | 17.78° C | 72% | 1014.7 hPa | 0 mm | - | 0 W/m² | - |
| 1788322154 | 18.33° C | 70% | 1014.6 hPa | 0 mm | - | 0 W/m² | - |
| 1788321548 | 18.33° C | 69% | 1014.4 hPa | 0 mm | - | 0 W/m² | - |
| 1788320948 | 18.33° C | 68% | 1014.1 hPa | 0 mm | - | 0 W/m² | - |
| 1788320348 | 18.89° C | 67% | 1014.1 hPa | 0 mm | - | 0 W/m² | - |
| 1788319747 | 18.89° C | 65% | 1014 hPa | 0 mm | - | 0 W/m² | - |
| 1788319142 | 19.44° C | 64% | 1014 hPa | 0 mm | - | 0 W/m² | - |
| 1788318540 | 19.44° C | 63% | 1013.6 hPa | 0 mm | - | 0 W/m² | - |
| 1788317939 | 19.44° C | 63% | 1013.6 hPa | 0 mm | - | 0 W/m² | - |
| 1788317335 | 20° C | 62% | 1013.2 hPa | 0 mm | - | 0 W/m² | - |
| 1788316732 | 20° C | 62% | 1013.4 hPa | 0 mm | - | 2 W/m² | - |
| 1788316133 | 20° C | 60% | 1013.4 hPa | 0 mm | - | 5 W/m² | - |
| 1788315530 | 20.56° C | 58% | 1013.1 hPa | 0 mm | - | 12 W/m² | - |
| 1788314925 | 20.56° C | 58% | 1013.2 hPa | 0 mm | - | 16 W/m² | - |
| 1788314322 | 20.56° C | 57% | 1013.2 hPa | 0 mm | - | 17 W/m² | - |
| 1788313719 | 21.11° C | 56% | 1013.1 hPa | 0 mm | - | 20 W/m² | - |
| 1788313114 | 21.67° C | 55% | 1013 hPa | 0 mm | - | 24 W/m² | - |
| 1788312511 | 22.22° C | 52% | 1012.9 hPa | 0 mm | - | 33 W/m² | - |
| 1788311908 | 22.78° C | 49% | 1012.8 hPa | 0 mm | - | 51 W/m² | - |
| 1788311308 | 23.89° C | 48% | 1012.6 hPa | 0 mm | - | 55 W/m² | - |
| 1788310708 | 24.44° C | 46% | 1012.9 hPa | 0 mm | - | 84 W/m² | - |
| 1788310104 | 24.44° C | 47% | 1012.5 hPa | 0 mm | - | 52 W/m² | - |
| 1788309499 | 25° C | 46% | 1012.5 hPa | 0 mm | - | 123 W/m² | - |
| 1788308896 | 25° C | 45% | 1012.7 hPa | 0 mm | - | 115 W/m² | - |
* Rain latest hour (hover to see other rain measurements)
** Current wind speed in m/s (hover to see current wind gust speed)